Temp
0 1 1 1 1 1 1 1 1 1 1 1 1 1 2 2 2 2 2 2 2 2 2 2 2 2 2 2 2 3 3 3 3 3 3 2 2 2 3 2 2 2
0 1 1 1 1 1 1 1 1 1 1 1 1 1 1 1 1 2 2 2 2 2 2 2 2 2 2 2 2 2 2 2 3 3 3 2 2 2 3 2 2 2
0 0 1 1 1 1 1 1 1 1 1 1 1 1 1 1 1 1 2 2 2 2 1 1 2 2 2 2 2 2 2 2 2 2 3 3 2 2 2 2 2 2
-0 0 0 1 1 1 1 1 1 1 1 1 1 1 1 1 1 1 1 2 2 2 1 1 1 1 2 2 1 1 2 2 2 2 2 3 3 3 2 2 2 2
-0 0 0 0 1 0 0 1 1 1 1 2 2 2 2 2 2 2 2 2 2 2 2 1 1 1 1 1 1 1 1 2 2 2 2 2 2 3 3 2 2 2
-0 -0 0 0 0 0 0 0 1 1 1 2 2 2 2 2 2 2 2 2 2 2 2 1 1 1 1 1 1 1 2 2 2 2 2 2 2 2 3 3 3 2
-1 -0 -0 -0 -0 -0 0 0 1 1 1 2 2 2 2 2 2 2 2 2 2 2 2 2 1 1 1 1 1 1 1 2 2 2 2 2 2 2 2 3 3 3
-1 -1 -1 -0 -0 -0 -0 0 1 1 1 2 2 2 2 3 3 3 2 2 2 2 2 2 2 1 1 1 1 1 1 2 2 2 2 2 2 2 2 2 3 3
-1 -1 -1 -1 -1 -1 -0 0 0 1 1 2 2 2 2 2 2 2 2 2 2 2 2 2 2 2 1 1 1 1 1 1 2 2 2 2 2 2 2 2 2 3
-1 -1 -1 -1 -1 -1 -0 -0 0 1 1 1 2 2 1 1 1 1 1 1 2 2 2 2 2 2 2 1 1 1 1 1 1 2 2 2 2 2 2 2 2 2
-2 -2 -2 -1 -1 -1 -1 -0 0 1 1 1 1 1 1 1 1 1 0 1 1 1 1 1 1 1 2 1 1 1 1 1 1 1 2 2 2 2 2 2 2 2
-2 -2 -2 -2 -1 -1 -1 -0 0 0 0 0 0 0 0 0 0 0 -0 -0 -0 0 0 1 1 1 1 1 1 1 1 1 1 1 2 2 2 2 2 2 2 2
-2 -2 -2 -2 -2 -1 -1 -0 -0 -0 -0 -0 -0 -0 -0 -0 -0 -0 -0 -1 -1 -1 -0 -0 0 0 1 1 1 1 1 1 1 1 1 2 2 2 2 2 2 2
-2 -2 -2 -2 -2 -1 -1 -1 -0 -0 -0 -0 -0 -0 -0 -0 -0 -1 -1 -1 -1 -1 -1 -1 -1 -0 0 0 1 1 1 1 1 1 1 2 2 2 2 2 2 2
-2 -2 -2 -2 -2 -1 -1 -1 -1 -1 -1 -1 -1 -1 -1 -1 -1 -1 -1 -1 -1 -1 -1 -1 -1 -1 -0 -0 -0 0 0 0 1 1 1 2 2 2 2 3 3 2
-2 -3 -2 -2 -2 -1 -1 -1 -1 -1 -1 -1 -1 -1 -1 -2 -1 -1 -1 -1 -1 -1 -1 -1 -1 -1 -1 -1 -1 -0 -0 -0 0 0 1 1 2 2 2 3 3 2
-3 -3 -2 -2 -2 -1 -1 -1 -1 -1 -1 -1 -2 -2 -2 -2 -2 -1 -1 -1 -1 -1 -1 -1 -1 -1 -1 -1 -1 -1 -1 -0 -0 0 0 1 1 2 2 2 3 2
-3 -3 -3 -2 -2 -2 -2 -2 -2 -2 -2 -2 -2 -2 -2 -2 -2 -2 -2 -2 -1 -1 -1 -1 -1 -1 -1 -1 -1 -1 -1 -1 -0 -0 0 0 1 1 2 2 2 2
-3 -3 -3 -2 -2 -2 -2 -2 -2 -2 -2 -2 -2 -2 -2 -2 -2 -2 -2 -1 -1 -1 -1 -1 -1 -0 -0 -0 -1 -1 -1 -1 -0 -0 0 0 1 1 1 2 2 2
-4 -3 -3 -3 -3 -3 -3 -3 -3 -3 -3 -3 -2 -2 -2 -2 -2 -2 -1 -1 -1 -1 -0 -0 -0 -0 -0 0 -0 -0 -1 -1 -0 -0 0 0 0 1 1 2 2 2
-4 -4 -4 -3 -3 -3 -3 -3 -3 -3 -3 -3 -2 -2 -2 -2 -2 -2 -1 -1 -1 -1 -0 0 0 0 0 1 0 -0 -0 -0 -0 -0 0 0 0 0 1 2 2 2
-4 -4 -4 -4 -4 -4 -3 -3 -3 -3 -3 -2 -2 -2 -2 -2 -2 -2 -1 -1 -1 -0 -0 0 0 0 1 1 1 1 0 -0 -0 0 0 0 0 0 1 2 2 2
-5 -5 -5 -4 -4 -4 -3 -3 -3 -3 -2 -2 -2 -2 -2 -2 -2 -1 -1 -1 -1 -1 -1 -0 0 0 0 1 1 1 0 0 0 0 0 0 0 0 1 2 2 2
-5 -5 -5 -5 -4 -4 -3 -3 -3 -2 -2 -2 -2 -2 -2 -2 -2 -1 -1 -1 -1 -1 -2 -1 -1 -0 0 1 1 0 0 0 0 0 1 0 0 1 1 2 2 2
-5 -5 -5 -5 -4 -4 -3 -3 -3 -2 -2 -3 -3 -3 -2 -2 -1 -1 -1 -2 -2 -2 -3 -2 -2 -1 -0 0 0 -0 0 1 1 1 1 1 1 1 1 2 2 2
-6 -5 -5 -4 -4 -4 -4 -3 -3 -3 -3 -3 -3 -3 -2 -2 -2 -2 -2 -3 -3 -3 -3 -3 -2 -1 -0 -0 -1 -1 0 1 1 1 1 1 1 1 2 2 2 1
Height
3092 3092 3092 3091 3091 3090 3089 3089 3089 3088 3088 3087 3086 3086 3085 3085 3084 3084 3084 3084 3084 3084 3084 3085 3087 3089 3091 3093 3094 3095 3096 3097 3098 3100 3102 3104 3105 3108 3109 3112 3115 3117
3088 3088 3088 3087 3087 3087 3086 3085 3085 3084 3084 3083 3083 3082 3082 3081 3081 3080 3080 3080 3080 3080 3080 3080 3081 3083 3084 3087 3088 3090 3091 3092 3093 3095 3097 3098 3100 3103 3105 3107 3109 3111
3085 3084 3084 3083 3083 3083 3082 3082 3081 3080 3079 3079 3079 3078 3078 3077 3077 3076 3076 3076 3076 3076 3076 3076 3076 3077 3078 3080 3082 3084 3085 3087 3088 3090 3091 3093 3095 3097 3100 3102 3103 3105
3081 3081 3080 3080 3079 3078 3078 3078 3077 3076 3075 3074 3074 3073 3073 3073 3072 3072 3071 3071 3071 3071 3072 3072 3072 3072 3073 3075 3076 3077 3079 3081 3083 3085 3086 3087 3089 3091 3094 3096 3098 3099
3077 3077 3076 3076 3075 3074 3074 3073 3072 3071 3070 3070 3069 3068 3068 3067 3067 3067 3067 3066 3066 3066 3067 3067 3068 3068 3068 3069 3070 3071 3073 3075 3078 3079 3080 3081 3083 3086 3088 3090 3092 3093
3073 3073 3073 3072 3071 3070 3069 3068 3067 3066 3065 3064 3064 3063 3062 3061 3061 3061 3061 3061 3061 3061 3061 3062 3062 3063 3064 3064 3065 3065 3067 3069 3072 3074 3075 3076 3078 3080 3082 3083 3085 3087
3070 3069 3069 3068 3067 3066 3065 3063 3062 3060 3059 3059 3058 3058 3057 3056 3055 3055 3055 3055 3056 3056 3056 3056 3057 3057 3058 3059 3059 3060 3061 3063 3066 3068 3069 3070 3072 3073 3075 3077 3078 3080
3066 3066 3065 3064 3063 3062 3060 3059 3057 3055 3054 3053 3052 3052 3051 3050 3049 3048 3048 3049 3049 3050 3050 3051 3051 3051 3052 3052 3053 3054 3055 3057 3059 3061 3063 3064 3066 3067 3069 3071 3072 3074
3062 3062 3061 3060 3058 3057 3056 3054 3053 3051 3049 3047 3046 3046 3045 3045 3044 3042 3041 3042 3042 3043 3044 3045 3045 3045 3046 3046 3047 3048 3049 3051 3052 3054 3057 3059 3060 3062 3063 3065 3066 3068
3058 3057 3056 3055 3054 3052 3051 3050 3048 3046 3044 3043 3041 3040 3039 3038 3038 3037 3036 3035 3035 3036 3037 3038 3039 3039 3039 3040 3041 3042 3043 3044 3046 3047 3050 3052 3055 3056 3058 3059 3060 3062
3054 3053 3052 3050 3049 3048 3046 3045 3043 3042 3040 3038 3036 3035 3033 3032 3031 3031 3030 3029 3028 3029 3030 3030 3031 3032 3033 3034 3034 3035 3036 3038 3039 3041 3043 3045 3048 3051 3052 3053 3054 3056
3049 3048 3047 3045 3044 3043 3042 3040 3038 3037 3035 3033 3031 3030 3029 3027 3025 3024 3024 3024 3023 3023 3023 3024 3024 3025 3026 3027 3028 3028 3030 3031 3033 3034 3036 3039 3041 3044 3047 3048 3049 3050
3044 3043 3041 3040 3039 3038 3036 3034 3033 3031 3029 3028 3027 3025 3024 3022 3020 3019 3018 3018 3018 3017 3017 3017 3018 3018 3019 3020 3021 3022 3023 3024 3026 3028 3030 3032 3034 3037 3040 3042 3043 3045
3039 3038 3036 3035 3034 3032 3030 3028 3026 3025 3023 3022 3021 3019 3018 3017 3015 3014 3012 3012 3012 3012 3012 3012 3011 3011 3012 3013 3014 3016 3017 3018 3020 3021 3023 3025 3027 3029 3032 3035 3037 3038
3034 3033 3031 3030 3029 3027 3024 3022 3020 3019 3017 3016 3015 3013 3012 3011 3010 3008 3007 3006 3006 3006 3006 3006 3005 3005 3006 3007 3008 3010 3011 3012 3013 3014 3016 3017 3020 3022 3024 3027 3030 3032
3030 3028 3026 3025 3023 3020 3018 3016 3014 3013 3012 3010 3009 3008 3006 3005 3004 3003 3002 3001 3000 3000 2999 2999 2999 2999 3000 3001 3002 3004 3004 3005 3006 3007 3008 3010 3012 3015 3017 3019 3022 3025
3025 3023 3021 3019 3016 3014 3012 3010 3009 3007 3006 3005 3003 3002 3001 3000 2998 2997 2996 2995 2994 2993 2992 2992 2992 2992 2993 2995 2996 2997 2997 2998 2998 3000 3001 3003 3004 3007 3010 3012 3015 3017
3020 3018 3015 3013 3010 3008 3006 3005 3003 3002 3000 2999 2997 2996 2995 2994 2993 2991 2990 2989 2987 2986 2985 2984 2984 2985 2986 2987 2988 2989 2990 2990 2991 2992 2994 2995 2996 2999 3003 3006 3007 3010
3015 3012 3010 3007 3005 3003 3001 2999 2998 2996 2995 2993 2992 2990 2989 2988 2986 2985 2983 2982 2980 2978 2977 2976 2976 2977 2978 2979 2980 2981 2982 2982 2983 2984 2986 2987 2989 2992 2995 2999 3001 3003
3010 3007 3004 3002 2999 2997 2995 2994 2992 2991 2989 2988 2986 2984 2983 2981 2979 2978 2976 2974 2972 2969 2967 2966 2966 2967 2969 2971 2972 2973 2974 2974 2975 2976 2977 2979 2982 2985 2988 2991 2994 2997
3005 3002 2999 2996 2994 2992 2990 2989 2987 2986 2984 2983 2981 2978 2976 2974 2972 2970 2968 2965 2963 2960 2957 2955 2955 2957 2959 2961 2962 2964 2965 2966 2966 2967 2969 2971 2974 2977 2981 2984 2987 2990
3000 2997 2994 2992 2989 2987 2986 2984 2982 2981 2979 2977 2975 2972 2970 2967 2964 2962 2959 2956 2954 2951 2947 2944 2944 2946 2947 2949 2952 2954 2955 2956 2957 2958 2960 2963 2967 2970 2974 2978 2981 2984
2996 2993 2990 2987 2985 2983 2981 2979 2977 2975 2973 2970 2968 2965 2963 2960 2956 2953 2949 2946 2942 2940 2936 2933 2933 2934 2936 2938 2941 2944 2945 2947 2948 2950 2952 2955 2959 2964 2968 2971 2974 2978
2991 2988 2986 2983 2981 2978 2976 2974 2972 2969 2967 2964 2961 2958 2955 2952 2948 2943 2939 2935 2931 2929 2926 2923 2922 2924 2925 2927 2931 2934 2935 2937 2939 2941 2944 2948 2953 2957 2961 2964 2968 2972
2987 2984 2982 2979 2976 2974 2972 2970 2967 2964 2961 2958 2955 2951 2947 2943 2938 2932 2928 2925 2922 2920 2918 2915 2913 2914 2916 2918 2921 2924 2925 2928 2931 2933 2936 2941 2946 2950 2954 2957 2961 2966
2984 2981 2978 2975 2972 2970 2967 2965 2961 2958 2955 2952 2949 2944 2939 2933 2928 2922 2918 2917 2915 2913 2911 2908 2906 2905 2907 2909 2912 2914 2916 2919 2923 2926 2929 2934 2939 2943 2947 2950 2955 2959
Wind_Speed
25 25 24 25 25 25 25 24 22 21 22 24 26 28 29 30 31 33 34 35 36 38 38 39 40 40 40 41 42 44 44 44 44 43 42 42 40 39 40 44 47 47
27 26 27 27 27 27 28 27 27 25 24 24 25 27 29 30 31 33 34 35 36 37 38 39 40 40 40 40 41 43 44 44 44 44 44 43 41 40 41 44 46 46
27 27 28 29 30 29 29 29 29 29 29 27 27 27 29 31 32 33 35 36 36 37 38 39 41 41 40 40 40 41 42 44 44 44 45 44 44 45 46 47 46 44
28 28 29 30 31 31 31 31 31 31 32 32 31 30 30 31 32 34 35 36 37 38 38 39 40 41 42 41 41 41 41 42 43 43 45 46 46 47 46 45 44 43
28 29 30 31 32 33 33 33 33 33 33 34 34 34 33 33 33 33 35 37 38 39 39 40 40 41 42 42 42 42 41 41 42 43 44 46 47 47 47 47 47 48
30 30 31 32 33 34 35 35 35 35 35 36 36 36 36 36 35 34 35 37 39 39 40 41 41 41 42 43 44 44 44 43 42 42 43 44 45 47 48 49 50 50
31 32 32 33 34 34 35 36 37 38 39 38 38 39 39 39 38 37 36 36 38 40 41 41 42 43 43 44 45 45 46 45 43 43 43 43 44 45 47 50 51 50
32 32 32 33 34 35 35 37 38 40 41 42 41 40 39 39 39 39 38 37 37 39 41 42 43 44 45 46 46 47 47 47 46 44 44 43 44 44 45 48 51 52
33 33 33 33 34 35 36 37 39 41 42 43 42 40 39 38 38 39 39 38 37 38 40 42 43 45 46 47 48 48 48 48 48 47 45 44 44 44 44 46 49 52
34 33 33 34 35 36 37 38 40 41 41 41 40 39 38 37 37 37 38 38 37 37 39 42 44 45 47 48 49 50 50 50 50 49 47 45 44 43 43 44 46 49
34 34 35 35 36 38 39 40 40 40 38 37 37 37 37 37 37 36 36 36 36 36 37 41 44 45 47 49 50 51 51 51 52 51 50 48 46 45 44 44 45 47
35 35 36 37 38 39 39 40 39 38 35 35 35 36 36 36 36 36 35 34 34 35 36 39 43 45 47 49 51 52 51 52 53 53 53 51 50 48 46 45 45 45
36 36 37 39 40 40 40 40 38 36 34 34 36 36 36 36 36 36 35 34 33 34 35 37 40 44 47 49 50 51 52 52 52 53 54 54 53 52 50 48 47 45
37 38 39 40 40 40 39 39 37 35 35 36 37 37 36 35 35 36 36 35 35 34 34 36 39 42 45 48 49 51 51 51 52 53 54 55 55 54 53 51 49 48
38 40 41 40 40 39 38 37 36 35 35 36 37 36 36 35 35 36 37 37 37 37 37 37 39 41 43 45 47 49 50 50 50 51 53 54 55 55 55 54 52 50
39 40 40 40 39 38 38 36 35 35 36 36 36 35 35 35 35 37 38 38 39 40 40 41 41 42 43 43 45 46 49 50 50 51 52 54 55 55 55 55 53 51
39 39 39 39 39 38 37 36 35 35 36 35 35 35 35 36 37 38 38 40 41 42 43 43 44 43 43 43 44 45 47 50 51 51 52 53 54 54 54 54 54 52
37 38 38 38 38 37 36 35 35 35 35 35 35 35 36 37 37 38 39 41 43 45 46 47 46 45 44 43 44 45 47 50 52 52 52 53 54 54 53 53 53 53
36 38 38 38 38 36 35 34 34 34 35 35 36 37 38 39 39 40 42 44 46 48 50 51 51 49 46 44 44 45 47 49 52 54 54 54 55 54 52 52 52 52
37 38 39 38 37 35 34 34 34 34 35 36 37 39 40 41 42 44 45 47 49 51 52 53 53 52 50 47 45 45 47 49 52 55 55 55 55 54 52 51 52 52
37 38 38 37 35 34 33 33 33 34 35 36 38 40 42 43 45 47 49 51 53 53 53 53 53 53 51 49 47 45 47 49 52 55 57 56 56 54 52 52 52 52
37 37 36 34 33 32 32 32 32 33 35 36 38 40 42 45 47 50 53 55 55 54 53 53 52 51 50 49 47 46 46 49 53 56 57 57 57 55 53 52 52 52
36 34 33 32 31 30 30 30 32 33 34 36 38 40 42 45 49 52 55 55 55 52 51 50 49 47 47 46 46 45 47 50 53 56 58 58 57 55 54 53 53 52
34 32 31 30 29 29 29 30 31 33 34 36 38 40 43 47 50 53 55 54 52 47 45 47 47 45 44 44 43 43 46 49 52 55 57 57 56 55 55 55 55 54
32 30 29 28 28 28 29 30 31 33 35 37 39 42 45 48 50 53 53 49 45 42 42 45 45 43 43 42 40 41 45 48 50 53 55 56 56 56 57 57 56 56
30 29 28 27 28 28 29 30 31 34 36 38 41 44 47 48 49 49 47 41 38 38 41 43 43 41 40 39 38 40 43 46 48 51 53 54 56 57 58 58 58 57
Wind_Direction
291 291 293 296 299 301 302 302 299 294 287 279 272 268 264 262 261 260 259 259 260 262 262 261 259 256 253 249 247 247 247 246 246 247 246 244 244 245 245 246 247 247
288 289 291 294 297 298 300 301 300 298 294 287 279 273 267 263 261 260 259 258 257 258 260 261 261 259 256 252 248 246 245 246 246 245 246 245 242 241 241 243 248 250
285 287 289 293 295 297 299 300 299 298 296 292 287 280 273 267 263 260 259 258 257 255 256 257 259 260 258 255 251 248 245 244 244 244 245 244 242 240 240 244 248 250
284 285 288 291 294 297 299 299 298 297 295 294 291 288 282 274 267 262 260 259 257 256 254 254 255 257 258 257 254 251 247 245 242 242 243 244 243 242 241 242 244 245
282 284 287 290 293 296 298 298 298 296 295 293 292 290 287 282 275 268 263 260 259 257 255 253 253 254 255 256 256 253 250 247 243 241 241 242 243 244 242 241 239 240
282 284 286 290 293 295 297 297 297 296 295 293 291 290 288 285 282 276 269 262 260 259 257 255 253 252 252 253 254 254 252 249 245 242 241 241 241 243 243 243 241 240
280 283 286 289 292 294 295 296 296 296 295 294 291 290 289 288 285 282 276 268 262 259 258 256 254 252 252 251 251 253 253 252 248 245 243 242 241 241 242 243 243 241
280 283 286 289 291 293 294 295 295 295 296 295 294 292 290 288 287 284 280 274 267 260 257 256 255 253 251 251 250 250 252 253 251 248 245 244 243 241 240 241 243 242
282 285 287 290 292 294 295 295 296 296 297 296 296 294 291 289 287 285 282 278 271 263 257 254 253 252 251 251 250 250 250 251 252 250 247 244 244 243 242 241 241 242
284 286 288 291 293 294 295 296 297 298 298 296 295 294 293 290 288 286 284 281 275 266 258 253 251 250 250 250 250 250 249 249 250 251 249 246 244 243 243 242 241 241
285 288 290 291 293 295 296 297 299 298 296 294 294 293 293 292 290 287 284 282 278 270 261 253 249 248 248 248 248 249 249 249 249 249 250 248 246 244 243 243 241 239
287 289 291 292 294 295 297 298 298 296 292 291 292 292 291 290 289 287 284 282 279 274 265 256 251 248 246 246 246 247 248 248 248 248 249 249 248 246 245 245 243 240
289 291 292 293 295 296 297 298 296 291 288 288 290 290 289 288 286 285 284 282 280 277 272 265 257 251 247 245 244 245 246 247 247 248 248 249 249 249 248 247 246 242
290 292 293 295 297 297 297 296 292 288 285 286 288 288 287 285 284 283 283 282 281 279 275 271 264 257 252 248 245 244 245 246 246 247 247 248 249 250 250 249 248 245
290 292 295 296 297 297 296 293 288 285 285 286 286 286 285 282 281 281 280 281 280 278 275 271 267 263 258 253 249 246 245 246 246 246 247 247 248 249 250 250 249 246
292 294 296 296 296 295 292 289 286 285 284 285 285 284 283 281 279 278 278 278 278 277 274 271 267 264 261 257 254 249 246 245 244 245 246 247 247 248 249 250 250 247
294 295 296 295 294 293 290 287 285 284 284 284 284 282 281 280 279 279 279 279 279 278 276 273 269 265 262 258 255 251 248 245 244 243 244 246 247 247 247 249 250 247
296 297 296 294 293 292 289 286 285 284 284 284 283 282 281 280 280 281 282 282 282 281 279 277 273 269 264 259 255 251 248 245 244 242 242 243 245 246 246 246 247 246
298 297 296 295 294 291 288 286 285 285 285 284 283 282 280 280 281 282 283 284 285 284 281 278 275 272 268 262 256 252 248 245 243 241 240 241 243 244 244 244 244 244
299 298 298 296 293 291 289 288 287 286 286 285 283 282 281 280 281 282 284 287 288 287 283 279 275 272 269 265 259 253 248 245 243 241 239 239 240 241 242 241 241 241
300 300 298 296 293 291 290 290 290 289 288 286 284 283 282 282 283 285 287 289 289 288 285 279 274 270 267 263 258 252 247 243 242 240 238 236 237 238 239 239 238 238
302 301 298 295 294 293 294 295 294 292 290 289 287 286 286 286 287 288 289 290 290 288 285 279 274 268 265 260 254 248 243 241 240 239 237 235 235 236 236 237 236 235
304 301 299 297 297 298 299 299 297 296 295 294 293 291 290 290 289 289 290 291 290 287 283 278 273 267 261 256 250 244 239 237 237 238 236 234 233 233 234 235 234 233
305 302 300 300 301 302 302 301 301 301 301 299 297 295 294 293 293 292 292 291 288 284 280 276 273 267 260 253 246 241 237 234 234 235 235 233 231 231 232 233 233 232
305 303 302 303 304 304 304 305 306 306 305 302 300 299 299 298 297 295 293 290 284 279 277 275 273 268 260 251 243 238 235 233 232 233 234 233 231 229 230 231 232 231
306 305 305 306 307 306 306 308 309 309 307 304 304 305 304 303 299 296 291 285 279 276 276 277 277 271 261 250 241 234 231 231 231 231 231 231 230 229 228 230 231 231